Location: Alfortville
(48.8058°N, 2.4204°E)
Time: 12:22:14
(UTC+00:00)

Meteor 1-19 Rocket - Pass Details

Date: 15 December 2023
Orbit: 806 x 928 km, 81.2° (Epoch: 01 March)

Event Time Altitude Azimuth Distance (km) Brightness Sun altitude
Exits shadow 05:19:46 - 349° (NNW) 3,187 7.0 -21.4°
Reaches altitude 10° 05:21:16 10° 350° (N) 2,618 6.5 -21.1°
Maximum altitude 05:27:16 80° 78° (ENE) 918 4.4 -20.1°
Drops below altitude 10° 05:33:03 10° 165° (SSE) 2,527 7.0 -19.2°
Sets 05:35:27 0° 167° (SSE) 3,443 7.8 -18.8°
